Volver al catálogo

STARLINK-30313

ActivoComunicacionesVLEO
NORAD 57676·PAYLOAD·🇺🇸 United States

Lanzado Aug 22, 2023 desde Vandenberg Space Force Base

Loading…

Próximos Pases (próximas 24 horas)

TLE

ActualizadoSource: CelesTrak SupGP

Época: Sep 15, 2026, 02:30 UTC

1 57676C 23124P   26258.10465278 -.00017803  00000+0 -52615-3 0  2589
2 57676  53.1605  46.6060 0001100  84.5172 301.3729 15.34390522    14

Sigue STARLINK-30313 en tiempo real con AllMySat

Download on the App Store